Overview Statistics Trail Chart Weather Telemetry Raw packets
 

This is the latest recevied weather packets stored in our database for station/object IZ5RIE-13. If no packets are shown the sender has not sent any weather packets the latest 10 day(s).

<< 31 32 33 34 35 36 37 >>
Time Temp. Humidity Pressure Rain* Wind** Luminosity Snow
1788098190 34.44° C 85% 1015.9 hPa - - - -
1788097290 34.44° C 94% 1016 hPa - - - -
1788096390 35° C 90% 1016.1 hPa - - - -
1788095489 34.44° C 89% 1016.1 hPa - - - -
1788094589 35.56° C 82% 1016.2 hPa - - - -
1788093689 36.11° C 69% 1016.2 hPa - - - -
1788092789 36.11° C 60% 1016.4 hPa - - - -
1788091889 36.11° C 60% 1016.3 hPa - - - -
1788090989 36.11° C 64% 1016.2 hPa - - - -
1788090088 36.11° C 63% 1016.2 hPa - - - -
1788089188 35.56° C 65% 1016.4 hPa - - - -
1788088288 35° C 78% 1016.3 hPa - - - -
1788087402 34.44° C 100% 1016.4 hPa - - - -
1788086490 33.89° C 100% 1016.6 hPa - - - -
1788085588 34.44° C 99% 1016.7 hPa - - - -
1788084688 34.44° C 96% 1016.7 hPa - - - -
1788083787 34.44° C 93% 1016.9 hPa - - - -
1788082887 34.44° C 90% 1016.9 hPa - - - -
1788081987 34.44° C 91% 1016.8 hPa - - - -
1788081087 34.44° C 87% 1016.8 hPa - - - -
1788080187 33.89° C 95% 1016.9 hPa - - - -
1788079287 33.33° C 100% 1016.8 hPa - - - -
1788078386 31.67° C 100% 1016.7 hPa - - - -
1788077485 28.89° C 100% 1016.8 hPa - - - -
1788077454 28.89° C 100% 1016.7 hPa - - - -

* Rain since midnight (hover to see other rain measurements)
** Current wind speed in m/s (hover to see current wind gust speed)